Location: Casilda
(33.0440°S, 61.1680°W)
Time: 08:48:04
(UTC-03:00)

ISS - Pass Details

Date: 16 October 2021
Orbit: 417 x 423 km, 51.6° (Epoch: 26 October)

Event Time Altitude Azimuth Distance (km) Brightness Sun altitude
Rises 19:41:23 0° 326° (NNW) 2,362 0.3 -5.5°
Reaches altitude 10° 19:43:30 10° 332° (NNW) 1,506 -0.8 -5.9°
Maximum altitude 19:46:47 49° 47° (NE) 556 -3.5 -6.6°
Drops below altitude 10° 19:50:07 10° 123° (ESE) 1,527 -1.3 -7.3°
Sets 19:52:17 0° 128° (SE) 2,401 -0.3 -7.7°
